LiveATC.Net - Listen to live air traffic control over the Internet!

ICAO: CYWG  IATA: YWG   Airport: Winnipeg James Armstrong Richardson International Airport
City: Winnipeg   State/Province: Manitoba
Country: Canada   Continent: North America
CYWG METAR Weather: CYWG 230800Z 08003KT 15SM SKC M05/M06 A3041 RMK SLP313
CYWG Flight Activity (FlightAware)
CYWG Gnd/Twr/App/Dep
Feed Status: UP   Listeners: 0
Listen right in your browser - requires Flash (in browser, requires Flash)
Click here to listen with your own player (launches your MP3 player)
CYWG Gnd/Twr/App/Dep Audio Archives
Winnipeg Arrival/Approach119.500
Winnipeg Departure119.900
Winnipeg Ground121.900
Winnipeg Tower125.400


Unauthorized use prohibited. See Terms of Service

Find LiveATC Audio Streams

Airport/ARTCC Code

Frequency Search
(e.g., 124.400, 128.75)
Site-wide search

Browse LiveATC Feeds
LiveATC Coverage Map
Top 50 LiveATC Feeds
Bad Weather Areas

Offer a LiveATC Feed
Press Inquiries

LiveATC on iPhone
LiveATC on Android

Windows Phone
Windows 8/10

LiveATC Mobile
(Mobile browser)

ATC Audio Archives
Interesting Recordings

LiveATC Forums

Home Page
Make a Donation
Terms of Use
Privacy Policy

Canadian Air Freqs


FAA Airport Status
Nat'l Airspace Status
Arrival Demand Charts

Server Software By: